Regional Weather Roundup
Issued by NWS

Home | Current Version | Previous Version | Graphics & Text | Print | Product List | Glossary On
Versions: 1 2 3 4 5 6 7 8 9 10 11 12 13 14 15 16 17 18 19 20 21 22 23 24 25 26 27 28 29 30 31 32 33 34 35 36 37 38 39 40 41 42 43 44 45 46 47 48 49 50
000
ASUS43 KFSD 160910
RWRSD

WEATHER ROUNDUP FOR SOUTH DAKOTA
NATIONAL WEATHER SERVICE SIOUX FALLS SD
300 AM CST SAT DEC 16 2017

NOTE: "FAIR" INDICATES FEW OR NO CLOUDS BELOW 12,000 FEET WITH NO
SIGNIFICANT WEATHER AND/OR OBSTRUCTIONS TO VISIBILITY.


SDZ001>005-009-010-012>017-161000-
NORTHWEST AND NORTH CENTRAL SOUTH DAKOTA

CITY           SKY/WX    TMP DP  RH WIND       PRES   REMARKS
BUFFALO          N/A     37  31  78 NW25G33   29.69R
FAITH            N/A     34  22  61 W10       29.72R WCI  26
MOBRIDGE       CLOUDY    34  25  69 NW8       29.67R WCI  27
$$

SDZ012>016-024>037-041>051-057-063-072>074-161000-
SOUTHWEST AND SOUTH CENTRAL SOUTH DAKOTA

CITY           SKY/WX    TMP DP  RH WIND       PRES   REMARKS
RAPID CTY ARPT PTCLDY    37  14  38 N13       29.74R
PIERRE         CLOUDY    35  24  64 W10       29.70R WCI  27
CUSTER         CLOUDY    29  11  47 NW6       29.75R WCI  23
ELLSWORTH AFB  CLEAR     44  15  31 N10       29.74R
PHILIP         CLOUDY    35  24  64 W6        29.72R
PINE RIDGE     CLOUDY    31  19  61 CALM      29.74R
SPEARFISH      FAIR      41  18  38 NW7       29.78R
WINNER         FAIR      37  24  59 NW7       29.71R
$$

SDZ004>011-016>023-039-040-161000-
NORTHEAST SOUTH DAKOTA

CITY           SKY/WX    TMP DP  RH WIND       PRES   REMARKS
ABERDEEN       CLOUDY    32  25  75 W5        29.67R WCI  27
WATERTOWN      CLOUDY    33  26  75 W8        29.62R WCI  26
BROOKINGS      CLOUDY    32  26  78 W8        29.64R WCI  25
SISSETON         N/A     37  30  75 NW9       29.62R
$$

SDZ017-020-022-023-036>040-048>070-161000-
SOUTHEAST SOUTH DAKOTA

CITY           SKY/WX    TMP DP  RH WIND       PRES   REMARKS
SIOUX FALLS    PTCLDY    34  28  79 W10       29.65R WCI  26
HURON          CLOUDY    32  25  75 NW8       29.67R WCI  25
CHAMBERLAIN    CLOUDY    38  25  59 NW8       29.69R
MITCHELL       PTCLDY    38  26  62 W10       29.68R
YANKTON        CLOUDY    37  25  61 W8        29.67R
$$

ABBREVIATIONS USED IN REMARKS
   TC - TEMPERATURE IN CELSIUS
  WCI - WIND CHILL INDEX
   HX - HEAT INDEX
  VSB - VISIBILITY




USA.gov is the U.S. government's official web portal to all federal, state and local government web resources and services.